Location: Diebersbach
(48.5163°N, 8.0558°E)
Time: 10:09:28
(UTC+00:00)

Helios 1B rocket - Pass Details

Date: 20 June 2021
Orbit: 573 x 583 km, 98.2° (Epoch: 27 July)

Event Time Altitude Azimuth Distance (km) Brightness Sun altitude
Rises 02:20:23 0° 4° (N) 2,802 6.9 -8.5°
Reaches altitude 10° 02:22:47 10° 352° (N) 1,896 5.7 -8.3°
Maximum altitude 02:26:12 26° 295° (WNW) 1,155 3.8 -7.9°
Drops below altitude 10° 02:29:35 10° 239° (WSW) 1,880 4.4 -7.5°
Enters shadow 02:29:52 - 237° (WSW) 1,982 4.5 -7.5°
